Lid_Strength_Index
-0 -0 1 5 10 11 13 10 7 8 9 8 7 8 9 8 7 11 4 1 0 0 -0 -1 -1 -2 -2 -2 -2 -1 -1 -1 -1 -1 -1 -1 -1 -2 -1 -1 -1 -1 -2 -2 -2 -2 -2 -2 -2
1 3 6 6 12 16 14 8 8 9 8 7 7 7 8 7 4 3 3 1 0 0 0 -0 -1 -1 -2 -2 -1 -1 -1 -1 -1 -1 -1 -1 -1 -2 -2 -1 -1 -1 -1 -2 -2 -2 -2 -2 -2
2 4 6 9 12 15 13 8 7 8 7 8 8 6 6 6 3 3 2 1 0 0 -0 -0 -1 -1 -1 -1 -1 -1 -1 -1 -1 -1 -1 -1 -2 -1 -1 -1 -1 -2 -2 -2 -2 -2 -2 -2 -2
3 4 5 11 12 9 9 7 7 8 7 7 7 7 5 3 3 2 1 0 1 1 -0 -1 -1 -1 -1 -1 -1 -1 -1 -1 -1 -1 -1 -1 -2 -2 -2 -2 -2 -2 -2 -2 -2 -2 -2 -2 -2
3 5 10 12 11 8 7 6 8 9 8 7 6 7 6 3 2 1 1 1 2 1 0 -0 -1 -1 -1 -1 -1 -1 -1 -1 -1 -1 -1 -1 -1 -1 -1 -1 -2 -2 -2 -2 -2 -2 -2 -2 -2
7 7 12 13 10 7 7 7 7 8 7 7 7 6 6 3 3 2 1 2 1 1 0 0 -1 -1 -2 -2 -1 -1 -1 -0 -0 -1 -1 -1 -1 -1 -1 -2 -2 -2 -2 -2 -2 -2 -2 -2 -1
8 9 11 10 9 8 7 6 7 8 8 8 6 7 6 4 3 2 2 2 1 0 0 0 0 -1 -2 -2 -1 -1 -1 -1 -1 -1 -1 -1 -1 -1 -2 -2 -2 -2 -2 -2 -2 -2 -2 -2 -2
6 8 10 9 10 9 6 6 6 7 7 4 5 8 7 4 2 2 3 3 2 1 1 0 0 0 0 0 -1 -1 -1 -1 -1 -1 -1 -1 -1 -1 -1 -2 -1 -2 -2 -2 -2 -2 -2 -2 -2
4 10 11 10 9 8 7 8 6 5 6 5 5 6 4 2 2 3 4 4 3 2 2 2 2 2 1 0 -0 -1 -1 -1 -1 -1 -1 -1 0 0 -0 -1 -1 -2 -1 -2 -1 -1 -2 -2 -2
6 9 9 6 6 7 7 8 7 6 6 6 5 4 3 3 4 5 5 5 5 4 3 2 1 1 1 -0 1 1 0 1 1 0 1 1 1 1 -0 -1 -1 -1 -1 -1 -1 -1 -2 -1 1
6 9 7 6 5 5 6 8 6 7 8 6 6 5 4 4 4 5 5 5 4 3 2 2 1 0 1 1 1 2 1 1 1 1 1 1 0 1 0 0 0 0 -1 0 -0 -0 0 1 1
8 6 6 6 5 6 7 7 7 7 6 4 4 4 5 5 5 5 5 4 4 3 3 2 1 1 1 1 1 1 1 2 1 1 1 1 1 1 1 1 1 0 0 1 1 1 1 1 1
7 6 5 5 5 7 6 7 7 7 5 4 4 5 5 5 5 4 4 3 3 3 2 2 2 1 1 1 1 1 1 1 1 1 1 1 1 0 1 1 1 1 1 1 1 1 0 0 1
6 6 6 5 6 7 7 6 6 5 4 4 5 6 6 5 4 4 4 3 3 3 3 2 2 1 1 1 1 1 1 1 1 1 1 0 0 0 1 1 1 1 1 1 1 0 1 1 2
7 8 7 6 6 8 6 7 7 5 5 5 6 6 6 5 4 4 4 3 3 3 2 2 2 2 1 1 2 1 1 1 1 1 1 0 -0 0 1 1 1 1 1 1 1 1 1 1 1
9 8 10 8 7 6 7 10 7 5 6 6 5 5 5 5 5 4 3 3 3 3 2 2 1 2 1 1 2 1 1 1 1 1 1 0 -0 0 1 1 2 1 1 1 1 1 1 2 2
10 12 11 9 7 7 8 9 6 5 6 6 6 5 5 6 5 3 2 2 3 3 3 2 2 2 2 2 1 1 1 1 1 1 2 1 1 -0 1 1 1 1 1 1 1 1 1 2 2
13 12 10 10 8 8 9 8 7 6 6 7 6 6 5 6 5 3 3 2 3 2 2 2 2 2 2 2 1 2 2 2 1 1 2 1 1 -0 1 2 1 1 1 2 1 2 2 2 2
10 11 10 8 7 8 9 8 8 7 7 7 7 6 5 5 4 3 3 2 2 2 2 2 2 2 2 2 3 3 3 2 1 1 1 1 1 1 1 2 1 1 2 2 1 2 2 3 2
9 11 10 8 7 8 8 9 7 7 7 7 7 6 6 5 4 4 3 3 3 3 2 2 2 2 2 2 2 2 2 1 1 1 1 1 1 0 1 1 2 1 2 2 2 2 3 3 2
10 10 10 10 8 7 9 10 9 7 7 6 6 6 5 5 5 4 4 4 3 3 3 2 2 3 2 2 2 2 2 2 2 2 2 2 1 1 1 1 1 1 2 2 2 2 3 4 3
11 7 8 9 10 13 9 15 11 9 8 7 7 7 6 5 4 4 4 4 4 3 2 2 2 2 2 2 2 3 3 4 2 2 2 1 1 1 1 1 1 1 1 2 2 1 2 2 3
9 7 8 9 10 12 12 14 12 9 9 8 8 6 6 5 5 5 4 4 3 2 3 3 3 2 2 2 2 3 3 2 2 2 2 2 1 1 0 1 1 2 2 2 1 2 2 1 3
6 8 8 9 12 16 12 13 13 11 9 8 7 6 5 5 5 4 4 3 4 3 3 3 3 3 2 2 3 2 2 2 2 3 2 2 1 2 1 1 1 1 2 2 2 1 2 1 2
8 11 15 17 17 17 11 13 12 9 8 8 7 6 6 5 5 5 4 4 4 4 3 3 3 3 2 2 2 2 2 2 3 3 3 2 3 2 2 2 2 1 1 1 1 1 1 1 2
10 11 15 19 19 15 11 14 12 8 7 7 6 6 5 6 5 5 4 4 4 4 3 3 3 3 3 3 3 2 2 2 2 2 2 2 2 2 2 1 1 1 1 1 1 2 1 1 2
10 12 10 13 13 15 13 11 9 8 8 8 7 6 6 6 5 5 4 5 4 4 3 3 3 3 3 3 3 2 2 2 2 2 2 2 2 1 1 1 2 2 1 1 1 1 1 1 2
9 8 13 14 18 19 15 13 13 11 10 8 8 7 7 6 6 5 4 5 4 4 4 3 3 3 3 3 2 2 1 1 1 1 1 2 2 2 2 2 2 1 1 1 1 1 1 2 2
10 11 12 13 13 17 18 15 10 10 8 8 8 7 6 6 5 5 5 4 4 3 3 3 3 3 3 3 3 2 2 1 2 2 1 1 2 1 1 2 2 1 2 1 1 1 1 2 1
9 11 12 14 15 13 14 14 8 8 7 7 7 6 7 6 5 5 4 4 4 4 3 3 3 3 3 2 3 3 2 2 2 2 1 1 2 1 1 1 1 1 1 1 1 1 1 1 2